Вернуться в каталог

STARLINK-38088

АктивенСвязьSSO
NORAD 100114·PAYLOAD·🇺🇸 United States

Запущен Jul 21, 2026 с Vandenberg Space Force Base

Loading…

Ближайшие Пролёты (ближайшие 24 часа)

TLE

СвежийSource: Space-Track

Эпоха: Sep 14, 2026, 11:43 UTC

1 A0114U 26166P   26257.48819681  .00199109  00000-0  13013-2 0  9993
2 A0114  97.2833 275.4879 0000970  85.1503 274.9873 15.75253544  8650

Отслеживайте STARLINK-38088 в реальном времени с AllMySat

Download on the App Store